| time (UTC) | temp C | wind direction | speed KPH | gust KPH | rain 1hr cm | rain 24hr cm | rain mn cm | humidity % | barometer mb |
| 20260506111633 | 12 | 324 | 0.0 | 0.0 | 0.00 | 0.00 | 0.00 | 85 | 1005.5 |
| 20260506111123 | 12 | 22 | 0.0 | 0.0 | 0.00 | 0.00 | 0.00 | 85 | 1005.5 |
| 20260506110359 | 11 | 302 | 0.0 | 0.0 | 0.00 | 0.00 | 0.00 | 85 | 1005.5 |
| 20260506105853 | 11 | 296 | 0.0 | 0.0 | 0.00 | 0.00 | 0.00 | 85 | 1005.4 |
| 20260506105348 | 11 | 318 | 0.0 | 0.0 | 0.00 | 0.00 | 0.00 | 85 | 1005.3 |
| 20260506105105 | 11 | 309 | 0.0 | 0.0 | 0.00 | 0.00 | 0.00 | 85 | 1005.4 |
| 20260506104336 | 12 | 269 | 0.0 | 0.0 | 0.00 | 0.00 | 0.00 | 85 | 1005.4 |
| 20260506103829 | 12 | 306 | 0.0 | 0.0 | 0.00 | 0.00 | 0.00 | 85 | 1005.4 |
| 20260506103324 | 12 | 270 | 0.0 | 0.0 | 0.00 | 0.00 | 0.00 | 85 | 1005.4 |
| 20260506102818 | 12 | 294 | 0.0 | 0.0 | 0.00 | 0.00 | 0.00 | 85 | 1005.3 |
| 20260506102311 | 12 | 343 | 0.0 | 0.0 | 0.00 | 0.00 | 0.00 | 86 | 1005.3 |
| 20260506102022 | 12 | 336 | 0.0 | 0.0 | 0.00 | 0.00 | 0.00 | 86 | 1005.3 |
| 20260506101521 | 12 | 305 | 0.0 | 0.0 | 0.00 | 0.00 | 0.00 | 86 | 1005.2 |
| 20260506100753 | 12 | 10 | 0.0 | 0.0 | 0.00 | 0.00 | 0.00 | 87 | 1005.2 |
| 20260506100734 | 11 | 318 | 0.0 | 0.0 | 0.00 | 0.00 | 0.00 | 87 | 1005.1 |
| 20260506095742 | 11 | 330 | 0.0 | 0.0 | 0.00 | 0.00 | 0.00 | 87 | 1005.1 |
| 20260506095718 | 11 | 284 | 0.0 | 0.0 | 0.00 | 0.00 | 0.00 | 88 | 1005.1 |
| 20260506094730 | 11 | 273 | 0.0 | 0.0 | 0.00 | 0.00 | 0.00 | 88 | 1005.1 |
| 20260506094223 | 11 | 255 | 0.0 | 0.0 | 0.00 | 0.00 | 0.00 | 88 | 1005.0 |
| 20260506093717 | 12 | 339 | 0.0 | 0.0 | 0.00 | 0.00 | 0.00 | 88 | 1005.0 |
| 20260506093435 | 11 | 15 | 0.0 | 0.0 | 0.00 | 0.00 | 0.00 | 88 | 1005.1 |
| 20260506092708 | 11 | 294 | 0.0 | 0.0 | 0.00 | 0.00 | 0.00 | 88 | 1005.2 |
| 20260506092208 | 11 | 7 | 0.0 | 0.0 | 0.00 | 0.00 | 0.00 | 88 | 1005.1 |
| 20260506091708 | 11 | 320 | 0.0 | 0.0 | 0.00 | 0.00 | 0.00 | 89 | 1005.1 |
| 20260506091208 | 11 | 321 | 0.0 | 0.0 | 0.00 | 0.00 | 0.00 | 89 | 1005.1 |
| 20260506090709 | 11 | 326 | 0.0 | 0.0 | 0.00 | 0.00 | 0.00 | 89 | 1005.1 |
| 20260506090206 | 11 | 7 | 0.0 | 0.0 | 0.00 | 0.00 | 0.00 | 89 | 1005.1 |
| 20260506085706 | 11 | 337 | 0.0 | 0.0 | 0.00 | 0.00 | 0.00 | 89 | 1005.1 |
| 20260506085207 | 11 | 3 | 0.0 | 0.0 | 0.00 | 0.00 | 0.00 | 89 | 1005.0 |
| 20260506084704 | 11 | 353 | 0.0 | 0.0 | 0.00 | 0.00 | 0.00 | 89 | 1004.9 |
| 20260506084202 | 11 | 343 | 0.0 | 0.0 | 0.00 | 0.00 | 0.00 | 89 | 1004.9 |
| 20260506083702 | 11 | 336 | 0.0 | 0.0 | 0.00 | 0.00 | 0.00 | 89 | 1004.8 |
| 20260506083202 | 11 | 6 | 0.0 | 0.0 | 0.00 | 0.00 | 0.00 | 89 | 1004.8 |
| 20260506082920 | 11 | 330 | 0.0 | 0.0 | 0.00 | 0.00 | 0.00 | 89 | 1004.7 |
| 20260506082410 | 11 | 319 | 0.0 | 0.0 | 0.00 | 0.00 | 0.00 | 90 | 1004.5 |
| 20260506082120 | 11 | 7 | 0.0 | 0.0 | 0.00 | 0.00 | 0.00 | 90 | 1004.5 |
| 20260506081125 | 11 | 325 | 0.0 | 0.0 | 0.00 | 0.00 | 0.00 | 90 | 1004.6 |
| 20260506080615 | 11 | 358 | 0.0 | 0.0 | 0.00 | 0.00 | 0.00 | 90 | 1004.5 |
| 20260506080116 | 11 | 24 | 0.0 | 0.0 | 0.00 | 0.00 | 0.00 | 90 | 1004.6 |
| 20260506073516 | 11 | 305 | 0.0 | 0.0 | 0.00 | 0.00 | 0.00 | 90 | 1004.6 |
| 20260506073001 | 11 | 353 | 0.0 | 0.0 | 0.00 | 0.00 | 0.00 | 90 | 1004.6 |
| 20260506072453 | 11 | 348 | 0.0 | 0.0 | 0.00 | 0.00 | 0.00 | 90 | 1004.6 |
| 20260506071939 | 10 | 348 | 0.0 | 0.0 | 0.00 | 0.00 | 0.00 | 90 | 1004.6 |
| 20260506071431 | 10 | 319 | 0.0 | 0.0 | 0.00 | 0.00 | 0.00 | 90 | 1004.6 |
| 20260506070919 | 10 | 332 | 0.0 | 0.0 | 0.00 | 0.00 | 0.00 | 90 | 1004.6 |
| 20260506070403 | 11 | 358 | 0.0 | 0.0 | 0.00 | 0.00 | 0.00 | 90 | 1004.7 |
| 20260506062129 | 10 | 333 | 0.0 | 0.0 | 0.00 | 0.00 | 0.00 | 90 | 1004.5 |
| 20260506061625 | 10 | 329 | 0.0 | 0.0 | 0.00 | 0.00 | 0.00 | 90 | 1004.4 |
| 20260506061128 | 10 | 330 | 0.0 | 0.0 | 0.00 | 0.00 | 0.00 | 90 | 1004.4 |
| 20260506060638 | 10 | 328 | 0.0 | 0.0 | 0.00 | 0.00 | 0.00 | 90 | 1004.4 |
| 20260506060127 | 10 | 343 | 0.0 | 0.0 | 0.00 | 0.00 | 0.00 | 90 | 1004.4 |
| 20260506051127 | 10 | 293 | 0.0 | 0.0 | 0.00 | 0.00 | 0.00 | 90 | 1004.3 |
| 20260506050627 | 10 | 290 | 0.0 | 0.0 | 0.00 | 0.00 | 0.00 | 90 | 1004.4 |
| 20260506050125 | 10 | 289 | 0.0 | 0.0 | 0.00 | 0.00 | 0.00 | 90 | 1004.3 |
| 20260506050103 | 10 | 296 | 0.0 | 0.0 | 0.00 | 0.00 | 0.00 | 90 | 1004.3 |
| 20260506045126 | 10 | 294 | 0.0 | 0.0 | 0.00 | 0.00 | 0.00 | 90 | 1004.3 |
| 20260506044625 | 10 | 296 | 0.0 | 0.0 | 0.00 | 0.00 | 0.00 | 90 | 1004.3 |
| 20260506044123 | 10 | 300 | 0.0 | 0.0 | 0.00 | 0.00 | 0.00 | 90 | 1004.3 |
| 20260506043619 | 10 | 304 | 0.0 | 0.0 | 0.00 | 0.00 | 0.00 | 90 | 1004.3 |
| 20260506043119 | 10 | 309 | 0.0 | 0.0 | 0.00 | 0.00 | 0.00 | 90 | 1004.3 |
| 20260506042621 | 10 | 302 | 0.0 | 0.0 | 0.00 | 0.00 | 0.00 | 90 | 1004.3 |
| 20260506042119 | 11 | 297 | 0.0 | 0.0 | 0.00 | 0.00 | 0.00 | 90 | 1004.3 |
| 20260506041618 | 11 | 297 | 0.0 | 0.0 | 0.00 | 0.00 | 0.00 | 90 | 1004.3 |
| 20260506041118 | 11 | 297 | 0.0 | 0.0 | 0.00 | 0.00 | 0.00 | 90 | 1004.3 |
| 20260506040619 | 11 | 297 | 0.0 | 0.0 | 0.00 | 0.00 | 0.00 | 90 | 1004.3 |
| 20260506040118 | 11 | 305 | 0.0 | 0.0 | 0.00 | 0.00 | 0.00 | 90 | 1004.3 |
| 20260506035617 | 11 | 307 | 0.0 | 0.0 | 0.00 | 0.00 | 0.00 | 90 | 1004.3 |
| 20260506035336 | 11 | 302 | 0.0 | 0.0 | 0.00 | 0.00 | 0.00 | 90 | 1004.3 |
| 20260506034618 | 11 | 295 | 0.0 | 0.0 | 0.00 | 0.00 | 0.00 | 90 | 1004.3 |
| 20260506034118 | 11 | 271 | 0.0 | 0.0 | 0.00 | 0.00 | 0.00 | 90 | 1004.3 |
| 20260506033619 | 11 | 290 | 0.0 | 0.0 | 0.00 | 0.00 | 0.00 | 90 | 1004.3 |
| 20260506033118 | 11 | 294 | 0.0 | 0.0 | 0.00 | 0.00 | 0.00 | 90 | 1004.3 |
| 20260506032617 | 11 | 294 | 0.0 | 0.0 | 0.00 | 0.00 | 0.00 | 90 | 1004.3 |
| 20260506032118 | 11 | 293 | 0.0 | 0.0 | 0.00 | 0.00 | 0.00 | 90 | 1004.3 |
| 20260506031618 | 11 | 294 | 0.0 | 0.0 | 0.00 | 0.00 | 0.00 | 90 | 1004.3 |
| 20260506031607 | 11 | 294 | 0.0 | 0.0 | 0.00 | 0.00 | 0.00 | 90 | 1004.2 |
| 20260506030617 | 11 | 294 | 0.0 | 0.0 | 0.00 | 0.00 | 0.00 | 90 | 1004.2 |
| 20260506030122 | 11 | 297 | 0.0 | 0.0 | 0.00 | 0.00 | 0.00 | 90 | 1004.3 |
| 20260506025631 | 11 | 266 | 0.0 | 0.0 | 0.00 | 0.00 | 0.00 | 90 | 1004.4 |
| 20260506025117 | 11 | 263 | 0.0 | 0.0 | 0.00 | 0.00 | 0.00 | 90 | 1004.4 |
| 20260506024618 | 11 | 278 | 0.0 | 0.0 | 0.00 | 0.00 | 0.00 | 90 | 1004.4 |
| 20260506024348 | 11 | 281 | 0.0 | 0.0 | 0.00 | 0.00 | 0.00 | 90 | 1004.4 |
| 20260506023620 | 11 | 304 | 0.0 | 0.0 | 0.00 | 0.00 | 0.00 | 90 | 1004.3 |
| 20260506023342 | 11 | 304 | 0.0 | 0.0 | 0.00 | 0.00 | 0.00 | 90 | 1004.2 |
| 20260506022619 | 11 | 298 | 0.0 | 0.0 | 0.00 | 0.00 | 0.00 | 90 | 1004.3 |
| 20260506022602 | 11 | 284 | 0.0 | 0.0 | 0.00 | 0.00 | 0.00 | 90 | 1004.5 |
| 20260506021614 | 11 | 279 | 0.0 | 0.0 | 0.00 | 0.00 | 0.00 | 90 | 1004.5 |
| 20260506021115 | 11 | 272 | 0.0 | 0.0 | 0.00 | 0.00 | 0.00 | 90 | 1004.6 |
| 20260506020613 | 11 | 259 | 0.0 | 0.0 | 0.00 | 0.00 | 0.00 | 90 | 1004.6 |
| 20260506020115 | 11 | 258 | 0.0 | 0.0 | 0.00 | 0.00 | 0.00 | 90 | 1004.6 |
| 20260506015613 | 11 | 267 | 0.0 | 0.0 | 0.00 | 0.00 | 0.00 | 90 | 1004.6 |
| 20260506015113 | 11 | 271 | 0.0 | 0.0 | 0.00 | 0.00 | 0.00 | 90 | 1004.5 |
| 20260506014613 | 11 | 302 | 0.0 | 0.0 | 0.00 | 0.00 | 0.00 | 90 | 1004.6 |
| 20260506014115 | 11 | 280 | 0.0 | 0.0 | 0.00 | 0.00 | 0.00 | 90 | 1004.6 |
| 20260506013613 | 11 | 263 | 0.0 | 0.0 | 0.00 | 0.00 | 0.00 | 90 | 1004.5 |
| 20260506013331 | 11 | 263 | 0.0 | 0.0 | 0.00 | 0.00 | 0.00 | 90 | 1004.6 |
| 20260506012614 | 11 | 218 | 0.0 | 0.0 | 0.00 | 0.00 | 0.00 | 90 | 1004.6 |
| 20260506012341 | 11 | 219 | 0.0 | 0.0 | 0.00 | 0.00 | 0.00 | 90 | 1004.7 |
| 20260506011615 | 11 | 240 | 0.0 | 0.0 | 0.00 | 0.00 | 0.00 | 90 | 1004.7 |
| 20260506011111 | 11 | 245 | 0.0 | 0.0 | 0.00 | 0.00 | 0.00 | 90 | 1004.7 |
| 20260506010614 | 11 | 262 | 0.0 | 0.0 | 0.00 | 0.00 | 0.00 | 90 | 1004.7 |
| 20260506010112 | 11 | 275 | 0.0 | 0.0 | 0.00 | 0.00 | 0.00 | 90 | 1004.6 |
| 20260506005613 | 11 | 288 | 0.0 | 0.0 | 0.00 | 0.00 | 0.00 | 90 | 1004.7 |
| 20260506005108 | 11 | 290 | 0.0 | 0.0 | 0.00 | 0.00 | 0.00 | 90 | 1004.6 |
| 20260506004607 | 11 | 289 | 0.0 | 0.0 | 0.00 | 0.00 | 0.00 | 90 | 1004.7 |
| 20260506004107 | 11 | 293 | 0.0 | 0.0 | 0.00 | 0.00 | 0.00 | 90 | 1004.7 |
| 20260506003607 | 11 | 284 | 0.0 | 0.0 | 0.00 | 0.00 | 0.00 | 90 | 1004.8 |
| 20260506003109 | 11 | 290 | 0.0 | 0.0 | 0.00 | 0.00 | 0.00 | 90 | 1004.8 |
| 20260506002825 | 11 | 302 | 0.0 | 0.0 | 0.00 | 0.00 | 0.00 | 90 | 1004.8 |
| 20260506002107 | 11 | 287 | 0.0 | 0.0 | 0.00 | 0.00 | 0.00 | 90 | 1004.9 |
| 20260506001609 | 11 | 305 | 0.0 | 0.0 | 0.00 | 0.00 | 0.00 | 90 | 1004.9 |
| 20260506001332 | 11 | 281 | 0.0 | 0.0 | 0.00 | 0.00 | 0.00 | 90 | 1004.9 |
| 20260506000608 | 11 | 280 | 0.0 | 0.0 | 0.00 | 0.00 | 0.00 | 90 | 1005.0 |
| 20260506000110 | 11 | 272 | 0.0 | 0.0 | 0.00 | 0.00 | 0.00 | 90 | 1005.0 |
| 20260505235831 | 11 | 299 | 0.0 | 0.0 | 0.00 | 0.00 | 0.00 | 90 | 1005.1 |
| 20260505235108 | 11 | 280 | 0.0 | 0.0 | 0.00 | 0.00 | 0.00 | 90 | 1005.2 |
| 20260505234607 | 11 | 309 | 0.0 | 0.0 | 0.00 | 0.00 | 0.00 | 90 | 1005.2 |
| 20260505234107 | 11 | 269 | 0.0 | 0.0 | 0.00 | 0.00 | 0.00 | 90 | 1005.2 |
| 20260505234054 | 11 | 330 | 0.0 | 0.0 | 0.00 | 0.00 | 0.00 | 90 | 1005.4 |
| 20260505233108 | 11 | 311 | 0.0 | 0.0 | 0.00 | 0.00 | 0.00 | 90 | 1005.3 |
| 20260505232607 | 11 | 343 | 0.0 | 0.0 | 0.00 | 0.00 | 0.00 | 90 | 1005.4 |
| 20260505232107 | 11 | 299 | 0.0 | 0.0 | 0.00 | 0.00 | 0.00 | 89 | 1005.4 |
| 20260505231607 | 11 | 303 | 0.0 | 0.0 | 0.00 | 0.00 | 0.00 | 89 | 1005.5 |
| 20260505231109 | 11 | 311 | 0.0 | 0.0 | 0.00 | 0.00 | 0.00 | 89 | 1005.5 |
| 20260505230608 | 11 | 297 | 0.0 | 0.0 | 0.00 | 0.00 | 0.00 | 90 | 1005.5 |
| 20260505230334 | 11 | 276 | 0.0 | 0.0 | 0.00 | 0.00 | 0.00 | 90 | 1005.5 |
| 20260505225607 | 11 | 285 | 0.0 | 0.0 | 0.00 | 0.00 | 0.00 | 90 | 1005.6 |
| 20260505225111 | 11 | 300 | 0.0 | 0.0 | 0.00 | 0.00 | 0.00 | 90 | 1005.6 |
| 20260505224603 | 11 | 317 | 0.0 | 0.0 | 0.00 | 0.00 | 0.00 | 89 | 1005.6 |
| 20260505224105 | 11 | 319 | 0.0 | 0.0 | 0.00 | 0.00 | 0.00 | 89 | 1005.6 |
| 20260505223605 | 11 | 324 | 0.0 | 0.0 | 0.00 | 0.00 | 0.00 | 89 | 1005.7 |
| 20260505223558 | 11 | 310 | 0.0 | 0.0 | 0.00 | 0.00 | 0.00 | 89 | 1005.6 |
| 20260505222603 | 11 | 343 | 0.0 | 0.0 | 0.00 | 0.00 | 0.00 | 89 | 1005.7 |
| 20260505222104 | 11 | 296 | 0.0 | 0.0 | 0.00 | 0.00 | 0.00 | 89 | 1005.7 |
| 20260505221603 | 11 | 274 | 0.0 | 0.0 | 0.00 | 0.00 | 0.00 | 89 | 1005.7 |
| 20260505221104 | 11 | 274 | 0.0 | 0.0 | 0.00 | 0.00 | 0.00 | 89 | 1005.7 |
| 20260505220559 | 11 | 274 | 0.0 | 0.0 | 0.00 | 0.00 | 0.00 | 89 | 1005.7 |
| 20260505220329 | 11 | 274 | 0.0 | 0.0 | 0.00 | 0.00 | 0.00 | 89 | 1005.7 |
| 20260505215814 | 11 | 274 | 0.0 | 0.0 | 0.00 | 0.00 | 0.00 | 89 | 1005.8 |
| 20260505215056 | 11 | 274 | 0.0 | 0.0 | 0.00 | 0.00 | 0.00 | 89 | 1005.8 |
| 20260505214820 | 11 | 272 | 0.0 | 0.0 | 0.00 | 0.00 | 0.00 | 89 | 1005.8 |
| 20260505214316 | 11 | 272 | 0.0 | 0.0 | 0.00 | 0.00 | 0.00 | 89 | 1005.9 |
| 20260505213810 | 11 | 272 | 0.0 | 0.0 | 0.00 | 0.00 | 0.00 | 89 | 1005.9 |
| 20260505213055 | 11 | 271 | 0.0 | 0.0 | 0.00 | 0.00 | 0.00 | 89 | 1005.9 |
| 20260505212557 | 11 | 270 | 0.0 | 0.0 | 0.00 | 0.00 | 0.00 | 89 | 1006.0 |
| 20260505212054 | 11 | 271 | 0.0 | 0.0 | 0.00 | 0.00 | 0.00 | 89 | 1006.1 |
| 20260505211548 | 11 | 271 | 0.0 | 0.0 | 0.00 | 0.00 | 0.00 | 89 | 1006.1 |
| 20260505211049 | 11 | 271 | 0.0 | 0.0 | 0.00 | 0.00 | 0.00 | 89 | 1006.1 |
| 20260505210808 | 11 | 271 | 0.0 | 0.0 | 0.00 | 0.00 | 0.00 | 89 | 1006.2 |
| 20260505210058 | 12 | 309 | 0.0 | 0.0 | 0.00 | 0.00 | 0.00 | 89 | 1006.2 |
| 20260505205547 | 12 | 348 | 0.0 | 0.0 | 0.00 | 0.00 | 0.00 | 89 | 1006.2 |
| 20260505205047 | 12 | 299 | 0.0 | 0.0 | 0.00 | 0.00 | 0.00 | 89 | 1006.2 |
| 20260505204547 | 12 | 307 | 0.0 | 0.0 | 0.00 | 0.00 | 0.00 | 89 | 1006.3 |
| 20260505204047 | 12 | 313 | 0.0 | 0.0 | 0.00 | 0.00 | 0.00 | 89 | 1006.3 |
| 20260505203547 | 12 | 307 | 0.0 | 0.0 | 0.00 | 0.00 | 0.00 | 89 | 1006.3 |
| 20260505203046 | 12 | 328 | 0.0 | 0.0 | 0.00 | 0.00 | 0.00 | 89 | 1006.3 |
| 20260505202547 | 12 | 323 | 0.0 | 0.0 | 0.00 | 0.00 | 0.00 | 89 | 1006.3 |
| 20260505202042 | 12 | 300 | 0.0 | 0.0 | 0.00 | 0.00 | 0.00 | 89 | 1006.2 |
| 20260505201534 | 12 | 348 | 0.0 | 0.0 | 0.00 | 0.00 | 0.00 | 89 | 1006.3 |
| 20260505201031 | 12 | 314 | 0.0 | 0.0 | 0.00 | 0.00 | 0.00 | 89 | 1006.3 |
| 20260505200758 | 12 | 309 | 0.0 | 0.0 | 0.00 | 0.00 | 0.00 | 89 | 1006.2 |
| 20260505200031 | 12 | 312 | 0.0 | 0.0 | 0.00 | 0.00 | 0.00 | 89 | 1006.2 |
| 20260505195532 | 12 | 321 | 0.0 | 0.0 | 0.00 | 0.00 | 0.00 | 89 | 1006.3 |
| 20260505195030 | 12 | 318 | 0.0 | 0.0 | 0.00 | 0.00 | 0.00 | 89 | 1006.2 |
| 20260505194532 | 12 | 325 | 0.0 | 0.0 | 0.00 | 0.00 | 0.00 | 89 | 1006.2 |
| 20260505194031 | 12 | 357 | 0.0 | 0.0 | 0.00 | 0.00 | 0.00 | 89 | 1006.3 |
| 20260505193530 | 12 | 353 | 0.0 | 0.0 | 0.00 | 0.00 | 0.00 | 88 | 1006.3 |
| 20260505193028 | 12 | 353 | 0.0 | 0.0 | 0.00 | 0.00 | 0.00 | 88 | 1006.3 |
| 20260505192527 | 12 | 353 | 0.0 | 0.0 | 0.00 | 0.00 | 0.00 | 88 | 1006.3 |
| 20260505192026 | 12 | 336 | 0.0 | 0.0 | 0.00 | 0.00 | 0.00 | 88 | 1006.3 |
| 20260505191527 | 12 | 336 | 0.0 | 0.0 | 0.00 | 0.00 | 0.00 | 88 | 1006.3 |
| 20260505191247 | 12 | 320 | 0.0 | 0.0 | 0.00 | 0.00 | 0.00 | 88 | 1006.3 |
| 20260505190525 | 12 | 320 | 0.0 | 0.0 | 0.00 | 0.00 | 0.00 | 88 | 1006.3 |
| 20260505190026 | 12 | 312 | 0.0 | 0.0 | 0.00 | 0.00 | 0.00 | 88 | 1006.3 |
| 20260505185524 | 12 | 312 | 0.0 | 0.0 | 0.00 | 0.00 | 0.00 | 88 | 1006.2 |
| 20260505185025 | 13 | 312 | 0.0 | 0.0 | 0.00 | 0.00 | 0.00 | 88 | 1006.3 |
| 20260505184522 | 13 | 312 | 0.0 | 0.0 | 0.00 | 0.00 | 0.00 | 88 | 1006.3 |
| 20260505184236 | 13 | 312 | 0.0 | 0.0 | 0.00 | 0.00 | 0.00 | 88 | 1006.4 |
| 20260505183519 | 13 | 312 | 0.0 | 0.0 | 0.00 | 0.00 | 0.00 | 88 | 1006.4 |
| 20260505183018 | 13 | 315 | 0.0 | 0.0 | 0.00 | 0.00 | 0.00 | 88 | 1006.4 |
| 20260505182517 | 13 | 324 | 0.0 | 0.0 | 0.00 | 0.00 | 0.00 | 88 | 1006.3 |
| 20260505182016 | 13 | 325 | 0.0 | 0.0 | 0.00 | 0.00 | 0.00 | 88 | 1006.4 |
| 20260505181518 | 13 | 323 | 0.0 | 0.0 | 0.00 | 0.00 | 0.00 | 88 | 1006.4 |
| 20260505181016 | 13 | 323 | 0.0 | 0.0 | 0.00 | 0.00 | 0.00 | 88 | 1006.4 |
| 20260505180528 | 13 | 322 | 0.0 | 0.0 | 0.00 | 0.00 | 0.00 | 88 | 1006.4 |
| 20260505180014 | 13 | 322 | 0.0 | 0.0 | 0.00 | 0.00 | 0.00 | 87 | 1006.4 |
| 20260505180002 | 13 | 322 | 0.0 | 0.0 | 0.00 | 0.00 | 0.00 | 87 | 1006.4 |
| 20260505175011 | 13 | 331 | 0.0 | 0.0 | 0.00 | 0.00 | 0.00 | 87 | 1006.4 |
| 20260505174511 | 13 | 293 | 0.0 | 0.0 | 0.00 | 0.00 | 0.00 | 87 | 1006.3 |
| 20260505174011 | 13 | 301 | 0.0 | 0.0 | 0.00 | 0.00 | 0.00 | 87 | 1006.4 |
| 20260505173513 | 13 | 306 | 0.0 | 0.0 | 0.00 | 0.00 | 0.00 | 87 | 1006.4 |
| 20260505173011 | 13 | 305 | 0.0 | 0.0 | 0.00 | 0.00 | 0.00 | 87 | 1006.4 |
| 20260505172516 | 13 | 300 | 0.0 | 0.0 | 0.00 | 0.00 | 0.00 | 87 | 1006.4 |
| 20260505172010 | 13 | 294 | 0.0 | 0.0 | 0.00 | 0.00 | 0.00 | 87 | 1006.4 |
| 20260505171512 | 13 | 301 | 0.0 | 0.0 | 0.00 | 0.00 | 0.00 | 87 | 1006.5 |
| 20260505171012 | 13 | 313 | 0.0 | 0.0 | 0.00 | 0.00 | 0.00 | 86 | 1006.5 |
| 20260505170508 | 13 | 294 | 0.0 | 0.0 | 0.00 | 0.00 | 0.00 | 86 | 1006.5 |
| 20260505170007 | 13 | 315 | 0.0 | 0.0 | 0.00 | 0.00 | 0.00 | 86 | 1006.5 |
| 20260505165506 | 14 | 322 | 0.0 | 0.0 | 0.00 | 0.00 | 0.00 | 86 | 1006.5 |
| 20260505165014 | 14 | 299 | 0.0 | 0.0 | 0.00 | 0.00 | 0.00 | 86 | 1006.5 |
| 20260505165006 | 14 | 315 | 0.0 | 0.0 | 0.00 | 0.00 | 0.00 | 86 | 1006.5 |
| 20260505164008 | 14 | 359 | 0.0 | 0.0 | 0.00 | 0.00 | 0.00 | 86 | 1006.5 |
| 20260505163508 | 14 | 18 | 0.0 | 0.0 | 0.00 | 0.00 | 0.00 | 85 | 1006.5 |
| 20260505163009 | 14 | 303 | 0.0 | 0.0 | 0.00 | 0.00 | 0.00 | 85 | 1006.4 |
| 20260505162509 | 14 | 8 | 0.0 | 0.0 | 0.00 | 0.00 | 0.00 | 85 | 1006.5 |
| 20260505162003 | 15 | 315 | 0.0 | 0.0 | 0.00 | 0.00 | 0.00 | 85 | 1006.5 |
| 20260505161722 | 14 | 22 | 0.0 | 0.0 | 0.00 | 0.00 | 0.00 | 85 | 1006.6 |
| 20260505161003 | 14 | 301 | 0.0 | 0.0 | 0.00 | 0.00 | 0.00 | 84 | 1006.5 |
| 20260505160725 | 14 | 313 | 0.0 | 0.0 | 0.00 | 0.00 | 0.00 | 84 | 1006.5 |
| 20260505152958 | 16 | 300 | 0.0 | 0.0 | 0.00 | 0.00 | 0.00 | 81 | 1006.4 |
| 20260505152500 | 16 | 334 | 0.0 | 0.0 | 0.00 | 0.00 | 0.00 | 81 | 1006.5 |
| 20260505152219 | 16 | 324 | 0.0 | 0.0 | 0.00 | 0.00 | 0.00 | 81 | 1006.5 |
| 20260505151458 | 16 | 303 | 0.0 | 0.0 | 0.00 | 0.00 | 0.00 | 80 | 1006.5 |
| 20260505150959 | 16 | 311 | 0.0 | 0.0 | 0.00 | 0.00 | 0.00 | 80 | 1006.4 |
| 20260505150459 | 16 | 324 | 0.0 | 0.0 | 0.00 | 0.00 | 0.00 | 80 | 1006.4 |
| 20260505140450 | 18 | 337 | 0.0 | 0.0 | 0.00 | 0.00 | 0.00 | 68 | 1006.9 |
| 20260505124946 | 17 | 301 | 0.0 | 0.0 | 0.00 | 0.00 | 0.00 | 70 | 1007.6 |
| 20260505124447 | 17 | 305 | 0.0 | 0.0 | 0.00 | 0.00 | 0.00 | 70 | 1007.6 |
| 20260505123946 | 17 | 306 | 0.0 | 0.0 | 0.00 | 0.00 | 0.00 | 71 | 1007.6 |
| 20260505123444 | 17 | 306 | 0.0 | 0.0 | 0.00 | 0.00 | 0.00 | 69 | 1007.6 |
| 20260505122943 | 18 | 303 | 0.0 | 0.0 | 0.00 | 0.00 | 0.00 | 68 | 1007.7 |
| 20260505122442 | 18 | 295 | 0.0 | 0.0 | 0.00 | 0.00 | 0.00 | 68 | 1007.7 |
| 20260505122214 | 18 | 270 | 0.0 | 0.0 | 0.00 | 0.00 | 0.00 | 69 | 1007.8 |
| 20260505121706 | 18 | 348 | 0.0 | 0.0 | 0.00 | 0.00 | 0.00 | 69 | 1007.8 |
| 20260505120942 | 18 | 13 | 0.0 | 0.0 | 0.00 | 0.00 | 0.00 | 72 | 1007.8 |
| 20260505120444 | 18 | 265 | 0.0 | 0.0 | 0.00 | 0.00 | 0.00 | 72 | 1007.8 |
| 20260505115942 | 18 | 1 | 0.0 | 0.0 | 0.00 | 0.00 | 0.00 | 74 | 1007.9 |
| 20260505115443 | 17 | 353 | 0.0 | 0.0 | 0.00 | 0.00 | 0.00 | 75 | 1008.0 |
| 20260505114942 | 17 | 4 | 0.0 | 0.0 | 0.00 | 0.00 | 0.00 | 76 | 1008.1 |
| 20260505114700 | 16 | 270 | 0.0 | 0.0 | 0.00 | 0.00 | 0.00 | 76 | 1008.1 |
| 20260505113942 | 16 | 270 | 0.0 | 0.0 | 0.00 | 0.00 | 0.00 | 76 | 1008.0 |
| 20260505113708 | 16 | 270 | 0.0 | 0.0 | 0.00 | 0.00 | 0.00 | 76 | 1008.0 |
| 20260505112942 | 16 | 270 | 0.0 | 0.0 | 0.00 | 0.00 | 0.00 | 76 | 1008.1 |
| 20260505112443 | 16 | 259 | 0.0 | 0.0 | 0.00 | 0.00 | 0.00 | 77 | 1008.1 |
| 20260505111955 | 16 | 259 | 0.0 | 0.0 | 0.00 | 0.00 | 0.00 | 77 | 1008.2 |